Weather History for KLNK - April, 2013

Change the Weather History Date:

Saturday, April 6, 2013

  Actual Average Record
Temperature  
Mean Temperature 57 °F 48 °F  
Max Temperature 72 °F 61 °F 91 °F (1972)
Min Temperature 42 °F 35 °F 12 °F (1994)
Degree Days  
Heating Degree Days 8 17  
Month to date heating degree days 123 108  
Since 1 July heating degree days 5680 5584  
Cooling Degree Days 0 0  
Month to date cooling degree days 0 0  
Year to date cooling degree days 0 1  
Growing Degree Days 10 (Base 50)    
Moisture  
Dew Point 39 °F    
Average Humidity 51    
Maximum Humidity 74    
Minimum Humidity 27    
Precipitation  
Precipitation T in 0.08 in 0.79 in (1928)
Month to date precipitation T 0.44  
Year to date precipitation 3.39 3.78  
Snow  
Snow 0.00 in 0.10 in - ()
Month to date snowfall T 0.5  
Since 1 July snowfall 24.2 25.0  
Snow Depth 0.00 in    
Sea Level Pressure  
Sea Level Pressure 29.68 in    
Wind  
Wind Speed 13 mph (West)    
Max Wind Speed 28 mph    
Max Gust Speed 36 mph    
Visibility 10 miles    
Events      
T = Trace of Precipitation, MM = Missing Value Source: NWS Daily Summary

Daily Weather History Graph

Daily Weather History Graph

Search for Another Location

Airport or City:

Trip Planner

Search our weather history database for the weather conditions in past years. The results will help you decide how hot, cold, wet, or windy it might be!

Date:

Astronomy

Apr. 06, 2013 Rise Set
Actual Time 7:01 AM CDT 7:57 PM CDT
Civil Twilight 6:34 AM CDT 8:25 PM CDT
Nautical Twilight 6:00 AM CDT 8:58 PM CDT
Astronomical Twilight 5:26 AM CDT 9:33 PM CDT
Moon 4:47 AM CDT (4/6) 4:26 PM CDT (4/6)
Length of Visible Light 13h 51m
Length of Day
12h 55m
Waning Crescent, 15% of the Moon is Illuminated
Apr 6
Waning Crescent
Apr 10
New
Apr 18
First Quarter
Apr 25
Full
May 2
Last Quarter

Hourly Weather History & Observations

Time (CDT) Temp. Dew Point Humidity Pressure Visibility Wind Dir Wind Speed Gust Speed Precip Events Conditions
12:54 AM 59.0 °F 37.9 °F 46% 29.68 in 10.0 mi South 23.0 mph 28.8 mph N/A   Clear
1:54 AM 57.9 °F 39.9 °F 51% 29.66 in 10.0 mi South 18.4 mph 27.6 mph N/A   Clear
2:54 AM 57.0 °F 39.9 °F 53% 29.65 in 10.0 mi South 18.4 mph 24.2 mph N/A   Clear
3:54 AM 55.0 °F 41.0 °F 59% 29.64 in 10.0 mi South 11.5 mph - N/A   Clear
4:54 AM 53.1 °F 42.1 °F 66% 29.63 in 10.0 mi South 11.5 mph - N/A   Clear
5:54 AM 50.0 °F 42.1 °F 74% 29.62 in 10.0 mi South 9.2 mph - N/A   Clear
6:54 AM 53.1 °F 44.1 °F 71% 29.62 in 10.0 mi SSW 11.5 mph - N/A   Clear
7:54 AM 54.0 °F 44.1 °F 69% 29.62 in 10.0 mi SSW 6.9 mph - N/A   Clear
8:54 AM 55.9 °F 44.1 °F 64% 29.62 in 10.0 mi WSW 15.0 mph 23.0 mph N/A   Clear
9:54 AM 54.0 °F 39.0 °F 57% 29.65 in 10.0 mi NW 20.7 mph 27.6 mph N/A   Partly Cloudy
10:54 AM 55.9 °F 35.1 °F 45% 29.66 in 9.0 mi NW 21.9 mph 27.6 mph N/A   Mostly Cloudy
11:54 AM 60.1 °F 37.0 °F 42% 29.67 in 8.0 mi NW 19.6 mph 26.5 mph 0.00 in   Partly Cloudy
12:54 PM 64.0 °F 37.9 °F 38% 29.67 in 10.0 mi NW 20.7 mph 28.8 mph N/A   Clear
1:54 PM 68.0 °F 39.0 °F 35% 29.67 in 10.0 mi NNW 21.9 mph 29.9 mph N/A   Partly Cloudy
2:54 PM 69.1 °F 37.9 °F 32% 29.67 in 10.0 mi WNW 19.6 mph - N/A   Partly Cloudy
3:54 PM 69.1 °F 37.9 °F 32% 29.68 in 10.0 mi NNW 23.0 mph 32.2 mph N/A   Partly Cloudy
4:54 PM 69.1 °F 37.0 °F 31% 29.70 in 10.0 mi NNW 20.7 mph 26.5 mph N/A   Partly Cloudy
5:54 PM 71.1 °F 36.0 °F 28% 29.71 in 10.0 mi NNW 15.0 mph - N/A   Clear
6:54 PM 70.0 °F 35.1 °F 28% 29.72 in 10.0 mi NW 6.9 mph - N/A   Clear
7:54 PM 66.9 °F 35.1 °F 31% 29.73 in 10.0 mi Calm Calm - N/A   Clear
8:54 PM 57.9 °F 37.9 °F 47% 29.75 in 10.0 mi Calm Calm - N/A   Clear
9:54 PM 53.1 °F 39.9 °F 61% 29.79 in 10.0 mi Calm Calm - N/A   Scattered Clouds
10:54 PM 55.9 °F 37.9 °F 51% 29.80 in 10.0 mi Calm Calm - N/A   Clear
11:54 PM 48.9 °F 37.0 °F 64% 29.81 in 10.0 mi Calm Calm - N/A   Clear